STARLINK-30138 (57605 NORAD) Tracking and Keplerian Element Data

This shows tracking and keplerian element data for the satellite.

Feedback or suggestion? Click here.




ElementValue
Catalog57605
NameSTARLINK-30138
Epoch Orbit2476
Epoch Day13.18679079
Epoch Year2024
RAAN35.397
Inclination43.0033
Eccentricity9.35E-05
Argument of Perigee241.4516
Mean Anonmoly118.6232
Mean Motion15.02537366
Decay Rate0.00020428
L11 57605U 23119D 24013.18679079 .00020428 00000+0 15228-2 0 9991
L22 57605 43.0033 35.3970 0000935 241.4516 118.6232 15.02537366 24765



Live tracking and technical data element details for STARLINK-30138 (NORAD 57605). STARLINK-30138 can be tracked NOW for your location showing map with azimuth and elevation plus other details from your city location.







IsCatalogInMostPopularTable: catalog: 57605, numindb: 19
Update: records affected: 1



GetName: 57605 STARLINK-30138

Hit Count: updated at: Sun, 14 Apr 2024 23:06:59 GMT